Weather History for Dalton, GA

Change the Weather History Date:

Friday, March 8, 2013

  Actual Average Record
Temperature  
Mean Temperature 44 °F -  
Max Temperature 57 °F 59 °F 81 °F (1956)
Min Temperature 30 °F 36 °F 12 °F (1999)
Degree Days  
Heating Degree Days 22    
Moisture  
Dew Point 27 °F    
Average Humidity 61    
Maximum Humidity 93    
Minimum Humidity 29    
Precipitation  
Precipitation 0.00 in - - ()
Sea Level Pressure  
Sea Level Pressure 30.29 in    
Wind  
Wind Speed 10 mph (NNW)    
Max Wind Speed 16 mph    
Max Gust Speed 24 mph    
Visibility 10 miles    
Events      
Averages and records for this station are not official NWS values.
T = Trace of Precipitation, MM = Missing Value Source: NWS Daily Summary

Daily Weather History Graph

Daily Weather History Graph

Search for Another Location

Airport:

Trip Planner

Search our weather history database for the weather conditions in past years. The results will help you decide how hot, cold, wet, or windy it might be!

Date:

Astronomy

Mar. 08, 2013 Rise Set
Actual Time 6:59 AM EST 6:41 PM EST
Civil Twilight 6:34 AM EST 7:06 PM EST
Nautical Twilight 6:04 AM EST 7:36 PM EST
Astronomical Twilight 5:35 AM EST 8:05 PM EST
Moon 4:36 AM EST (3/8) 3:41 PM EST (3/8)
Length of Visible Light 12h 32m
Length of Day
11h 42m
Waning Crescent, 12% of the Moon is Illuminated
Mar 8
Waning Crescent
Mar 11
New
Mar 19
First Quarter
Mar 27
Full
Apr 3
Last Quarter

Hourly Weather History & Observations

Time (EST) Temp. Windchill Dew Point Humidity Pressure Visibility Wind Dir Wind Speed Gust Speed Precip Events Conditions
12:15 AM 32.0 °F 23.0 °F 28.4 °F 87% 30.28 in 10.0 mi NNW 11.5 mph 16.1 mph N/A   Clear
12:35 AM 32.0 °F 23.6 °F 28.4 °F 87% 30.28 in 10.0 mi NNW 10.4 mph - N/A   Clear
12:55 AM 32.0 °F 23.6 °F 28.4 °F 87% 30.28 in 10.0 mi NNW 10.4 mph - N/A   Clear
1:15 AM 32.0 °F 22.5 °F 28.4 °F 87% 30.28 in 10.0 mi North 12.7 mph 16.1 mph N/A   Clear
1:35 AM 32.0 °F 22.5 °F 28.4 °F 87% 30.28 in 10.0 mi NNW 12.7 mph 18.4 mph N/A   Clear
1:55 AM 32.0 °F 22.5 °F 28.4 °F 87% 30.28 in 10.0 mi NNW 12.7 mph - N/A   Scattered Clouds
2:15 AM 32.0 °F 23.0 °F 28.4 °F 87% 30.29 in 10.0 mi NNW 11.5 mph - N/A   Scattered Clouds
2:35 AM 32.0 °F 23.6 °F 28.4 °F 87% 30.29 in 10.0 mi NNW 10.4 mph - N/A   Scattered Clouds
2:55 AM 32.0 °F 22.5 °F 28.4 °F 87% 30.29 in 10.0 mi NNW 12.7 mph - N/A   Scattered Clouds
3:15 AM 32.0 °F 23.6 °F 28.4 °F 87% 30.30 in 10.0 mi North 10.4 mph - N/A   Clear
3:35 AM 32.0 °F 23.0 °F 28.4 °F 87% 30.29 in 10.0 mi North 11.5 mph - N/A   Scattered Clouds
3:55 AM 32.0 °F 24.2 °F 28.4 °F 87% 30.29 in 10.0 mi North 9.2 mph - N/A   Scattered Clouds
4:15 AM 32.0 °F 24.8 °F 28.4 °F 87% 30.28 in 10.0 mi NNW 8.1 mph - N/A   Scattered Clouds
4:35 AM 32.0 °F 24.8 °F 28.4 °F 87% 30.29 in 10.0 mi NNW 8.1 mph - N/A   Clear
4:55 AM 32.0 °F 24.8 °F 28.4 °F 87% 30.30 in 10.0 mi NNW 8.1 mph - N/A   Clear
5:15 AM 32.0 °F 24.8 °F 28.4 °F 87% 30.30 in 10.0 mi North 8.1 mph - N/A   Scattered Clouds
5:35 AM 32.0 °F 24.8 °F 28.4 °F 87% 30.31 in 10.0 mi NNW 8.1 mph - N/A   Scattered Clouds
5:55 AM 30.2 °F 22.6 °F 28.4 °F 93% 30.31 in 10.0 mi NNW 8.1 mph - N/A   Clear
6:15 AM 30.2 °F 22.6 °F 28.4 °F 93% 30.33 in 10.0 mi NNW 8.1 mph - N/A   Clear
6:35 AM 30.2 °F 22.6 °F 28.4 °F 93% 30.34 in 10.0 mi NNW 8.1 mph - N/A   Clear
6:55 AM 30.2 °F 23.4 °F 28.4 °F 93% 30.34 in 10.0 mi North 6.9 mph - N/A   Clear
7:15 AM 30.2 °F 21.9 °F 28.4 °F 93% 30.34 in 10.0 mi NNW 9.2 mph - N/A   Clear
7:35 AM 32.0 °F 24.8 °F 28.4 °F 87% 30.34 in 10.0 mi North 8.1 mph - N/A   Clear
7:55 AM 32.0 °F 25.6 °F 28.4 °F 87% 30.34 in 10.0 mi North 6.9 mph - N/A   Clear
8:15 AM 32.0 °F 24.8 °F 30.2 °F 93% 30.34 in 10.0 mi North 8.1 mph 16.1 mph N/A   Clear
8:35 AM 33.8 °F 25.8 °F 30.2 °F 87% 30.34 in 10.0 mi North 10.4 mph - N/A   Clear
8:55 AM 33.8 °F 25.8 °F 30.2 °F 87% 30.35 in 10.0 mi North 10.4 mph - N/A   Clear
9:15 AM 35.6 °F 29.2 °F 30.2 °F 81% 30.35 in 10.0 mi North 8.1 mph - N/A   Clear
9:35 AM 37.4 °F 31.4 °F 30.2 °F 75% 30.35 in 10.0 mi North 8.1 mph - N/A   Clear
9:55 AM 39.2 °F 33.0 °F 30.2 °F 70% 30.35 in 10.0 mi North 9.2 mph - N/A   Clear
10:15 AM 39.2 °F 32.5 °F 30.2 °F 70% 30.35 in 10.0 mi North 10.4 mph - N/A   Clear
10:35 AM 41.0 °F 36.4 °F 30.2 °F 65% 30.35 in 10.0 mi NW 6.9 mph - N/A   Clear
10:55 AM 42.8 °F 38.0 °F 30.2 °F 61% 30.35 in 10.0 mi NW 8.1 mph - N/A   Clear
11:15 AM 44.6 °F 39.7 °F 30.2 °F 57% 30.35 in 10.0 mi NNW 9.2 mph - N/A   Clear
11:35 AM 46.4 °F 41.5 °F 30.2 °F 53% 30.35 in 10.0 mi North 10.4 mph - N/A   Clear
11:55 AM 46.4 °F 40.4 °F 30.2 °F 53% 30.34 in 10.0 mi North 13.8 mph 17.3 mph N/A   Clear
12:15 PM 48.2 °F - 30.2 °F 50% 30.33 in 10.0 mi North 9.2 mph - N/A   Clear
12:35 PM 50.0 °F - 30.2 °F 47% 30.33 in 10.0 mi North 10.4 mph 17.3 mph N/A   Clear
12:55 PM 51.8 °F - 30.2 °F 44% 30.33 in 10.0 mi North 10.4 mph - N/A   Clear
1:15 PM 51.8 °F - 28.4 °F 41% 30.32 in 10.0 mi NNW 11.5 mph - N/A   Clear
1:35 PM 53.6 °F - 28.4 °F 38% 30.29 in 10.0 mi NNW 12.7 mph 18.4 mph N/A   Clear
1:55 PM 53.6 °F - 28.4 °F 38% 30.28 in 10.0 mi NNW 13.8 mph 23.0 mph N/A   Clear
2:15 PM 53.6 °F - 26.6 °F 35% 30.27 in 10.0 mi NNW 15.0 mph - N/A   Clear
2:35 PM 53.6 °F - 23.0 °F 30% 30.26 in 10.0 mi North 12.7 mph 23.0 mph N/A   Clear
2:55 PM 55.4 °F - 23.0 °F 29% 30.25 in 10.0 mi North 13.8 mph 18.4 mph N/A   Clear
3:15 PM 55.4 °F - 24.8 °F 31% 30.25 in 10.0 mi NNW 16.1 mph 20.7 mph N/A   Clear
3:35 PM 55.4 °F - 23.0 °F 29% 30.25 in 10.0 mi North 16.1 mph 19.6 mph N/A   Clear
3:55 PM 57.2 °F - 24.8 °F 29% 30.25 in 10.0 mi North 12.7 mph 21.9 mph N/A   Clear
4:15 PM 55.4 °F - 23.0 °F 29% 30.25 in 10.0 mi NNW 12.7 mph 16.1 mph N/A   Clear
4:35 PM 55.4 °F - 23.0 °F 29% 30.26 in 10.0 mi NNW 13.8 mph - N/A   Clear
4:55 PM 55.4 °F - 23.0 °F 29% 30.25 in 10.0 mi NNW 16.1 mph 24.2 mph N/A   Clear
5:15 PM 55.4 °F - 23.0 °F 29% 30.25 in 10.0 mi NNW 11.5 mph 18.4 mph N/A   Clear
5:35 PM 55.4 °F - 23.0 °F 29% 30.25 in 10.0 mi North 9.2 mph 19.6 mph N/A   Clear
5:55 PM 53.6 °F - 23.0 °F 30% 30.26 in 10.0 mi North 12.7 mph 17.3 mph N/A   Clear
6:15 PM 53.6 °F - 23.0 °F 30% 30.26 in 10.0 mi North 12.7 mph 18.4 mph N/A   Clear
6:35 PM 51.8 °F - 23.0 °F 33% 30.26 in 10.0 mi North 8.1 mph - N/A   Clear
6:55 PM 50.0 °F - 23.0 °F 35% 30.26 in 10.0 mi North 6.9 mph - N/A   Clear
7:15 PM 50.0 °F - 24.8 °F 37% 30.27 in 10.0 mi NNW 9.2 mph - N/A   Clear
7:35 PM 48.2 °F - 24.8 °F 40% 30.28 in 10.0 mi North 5.8 mph - N/A   Clear
7:55 PM 46.4 °F 43.5 °F 24.8 °F 43% 30.28 in 10.0 mi North 5.8 mph - N/A   Clear
8:15 PM 46.4 °F 42.9 °F 24.8 °F 43% 30.27 in 10.0 mi North 6.9 mph - N/A   Clear
8:35 PM 46.4 °F 42.4 °F 24.8 °F 43% 30.26 in 10.0 mi North 8.1 mph - N/A   Clear
8:55 PM 46.4 °F 42.4 °F 24.8 °F 43% 30.27 in 10.0 mi North 8.1 mph - N/A   Clear
9:15 PM 44.6 °F 40.2 °F 26.6 °F 49% 30.27 in 10.0 mi North 8.1 mph - N/A   Clear
9:35 PM 44.6 °F 41.4 °F 26.6 °F 49% 30.27 in 10.0 mi NW 5.8 mph - N/A   Clear
9:55 PM 42.8 °F 38.6 °F 26.6 °F 53% 30.27 in 10.0 mi NNW 6.9 mph - N/A   Clear
10:15 PM 42.8 °F 38.6 °F 26.6 °F 53% 30.27 in 10.0 mi NNW 6.9 mph - N/A   Clear
10:35 PM 42.8 °F 38.0 °F 28.4 °F 57% 30.27 in 10.0 mi NNW 8.1 mph - N/A   Clear
10:55 PM 42.8 °F 38.0 °F 28.4 °F 57% 30.27 in 10.0 mi NNW 8.1 mph - N/A   Clear
11:15 PM 42.8 °F 38.6 °F 28.4 °F 57% 30.26 in 10.0 mi NNW 6.9 mph - N/A   Clear
11:35 PM 42.8 °F 38.0 °F 28.4 °F 57% 30.26 in 10.0 mi NNW 8.1 mph - N/A   Clear
11:55 PM 41.0 °F 37.1 °F 28.4 °F 61% 30.27 in 10.0 mi NNW 5.8 mph - N/A   Clear